Flag for U.S.A. Weather past 2 weeks in Warminster Township, Pennsylvania, U.S.A.

Now
51 °F

Overcast.


Feels Like: 49 °F
Forecast: 51 / 58 °F
Wind: 7 mph from Northeast

Location: Doylestown Airport

Current Time: Oct 22, 2014 at 3:04:21 AM

Latest Report: Oct 22, 2014 at 1:54 AM


Visibility: 10 mi

Pressure: 29.88 "Hg

Humidity: 100%

Dew point: 51 °F

Location of Warminster TownshipLocation

Historic Weather in Warminster Township — Graph

°F

Warminster Township temperature yesterday

Maximum temperature yesterday: 66 °F (at 3:54 PM)
Minimum temperature yesterday: 48 °F (at 5:54 AM)
Average temperature yesterday: 56 °F

Past Weeks' High & Low Weather Summary

 TemperatureHumidityPressure
High75 °F (Oct 14, 2:54 PM)100% (Oct 8, 12:54 AM)30.33 "Hg (Oct 8, 12:54 AM)
Low31 °F (Oct 20, 6:54 AM)31% (Oct 9, 2:54 PM)29.59 "Hg (Oct 18, 4:54 AM)
Average57 °F77%29.97 "Hg
* Reported Oct 7 1:54 AM — Oct 22 1:54 AM, Warminster Township, Weather by CustomWeather, © 2014

Note: Actual official high and low records may vary slightly from our data, if they occured in-between our weather recording intervals... More about our weather records

Advertising

Warminster Township weather history for previous 24 hours

 ConditionsComfort  
Time TempWeatherWind HumidityBarometerVisibility
1:54 AM
Oct 22
51 °FOvercast.7 mph100%29.88 "Hg10 mi
12:54 AM52 °FOvercast.7 mph97%29.88 "Hg10 mi
11:54 PM
Oct 21
52 °FThundershowers. Overcast.3 mph100%29.89 "Hg10 mi
10:54 PM51 °FLight rain. Mostly cloudy.7 mph100%29.90 "Hg10 mi
9:54 PM55 °FPartly cloudy.No wind87%29.90 "Hg10 mi
8:54 PM56 °FPartly cloudy.6 mph84%29.88 "Hg10 mi
7:54 PM56 °FPassing clouds.3 mph81%29.86 "Hg10 mi
6:54 PM58 °FPartly sunny.3 mph72%29.84 "Hg10 mi
5:54 PM61 °FSunny.3 mph65%29.82 "Hg10 mi
4:54 PM65 °FSunny.6 mph54%29.80 "Hg10 mi
3:54 PM66 °FSunny.5 mph49%29.80 "Hg10 mi
2:54 PM64 °FSunny.6 mph54%29.81 "Hg10 mi
1:54 PM64 °FPassing clouds.3 mph61%29.81 "Hg10 mi
12:54 PM63 °FSunny.6 mph60%29.83 "Hg10 mi
11:54 AM63 °FSunny.No wind63%29.86 "Hg10 mi
10:54 AM59 °FSunny.No wind69%29.87 "Hg10 mi
9:54 AM56 °FSunny.3 mph77%29.88 "Hg10 mi
8:54 AM49 °FPartly sunny.No wind93%29.89 "Hg10 mi
7:54 AM48 °FMostly cloudy.3 mph96%29.88 "Hg10 mi
6:54 AM48 °FMostly cloudy.No wind96%29.88 "Hg10 mi
5:54 AM48 °FPartly cloudy.No wind96%29.87 "Hg10 mi
4:54 AM49 °FMostly cloudy.No wind93%29.88 "Hg10 mi
3:54 AM50 °FOvercast.No wind86%29.89 "Hg10 mi
Weather by CustomWeather, © 2014

See weather overviewHow to use our weather pages